Tracking 25734 objects as of 28-May-2022
HD Live streaming from Space Station
objects crossing your sky now

NOAA 17 DEB

Track NOAA 17 DEB now!
10-day predictions


NORAD ID: 48184
Int'l Code: 2002-032AA
Perigee: 801.1 km
Apogee: 830.6 km
Inclination: 98.7 °
Period: 101.1 minutes
Semi major axis: 7186 km
RCS: Unknown
Launch date: June 24, 2002
Source: United States (US)
Launch site: AIR FORCE WESTERN TEST RANGE (AFWTR)

Note: This is SATELLITE DEBRIS
aabbcc
Your satellite tracking list
Your tracking list is empty




NASA's NSSDC Master Catalog

Two Line Element Set (TLE):
1 48184U 02032Z   22148.11501095  .00003195  00000-0  13822-2 0  9997
2 48184  98.7426  97.0704 0020536 320.4425  39.5255 14.24943041 60137
Source of the keplerian elements: AFSPC